Location: Haliburton Scout Reserve
(45.0900°N, 78.3200°W)
Time: 09:18:38
(UTC-04:00)

Explorer 11/Cluster Stage 4 - Pass Details

Date: 02 February 2023
Orbit: 466 x 1241 km, 28.8° (Epoch: 31 March)

Event Time Altitude Azimuth Distance (km) Brightness Sun altitude
Rises 05:02:55 0° 214° (SW) 4,038 - -26.6°
Exits shadow 05:06:00 - 200° (SSW) 3,339 9.6 -26.0°
Reaches altitude 10° 05:07:01 10° 194° (SSW) 3,155 9.5 -25.8°
Maximum altitude 05:11:29 16° 160° (SSE) 2,761 9.5 -25.1°
Drops below altitude 10° 05:15:59 10° 126° (SE) 3,194 10.4 -24.3°
Sets 05:20:10 0° 107° (ESE) 4,114 11.5 -23.5°
